Location: Brienzwiler
(46.7508°N, 8.1014°E)
Time: 06:29:30
(UTC+00:00)

Cosmos 1455 - Pass Details

Date: 05 July 2020
Orbit: 500 x 521 km, 82.5° (Epoch: 05 August)

Event Time Altitude Azimuth Distance (km) Brightness Sun altitude
Rises 20:06:15 0° 352° (N) 2,643 6.7 -6.5°
Reaches altitude 10° 20:08:23 10° 355° (N) 1,755 5.7 -6.7°
Maximum altitude 20:12:14 73° 80° (E) 548 2.2 -7.2°
Drops below altitude 10° 20:16:04 10° 166° (SSE) 1,749 4.4 -7.7°
Enters shadow 20:16:47 - 167° (SSE) 2,041 4.7 -7.7°
